Location: Unspecified
(0.0000°N, 0.0000°E)
Time: 04:34:04
(UTC+00:00)

Tiangong 2 - Pass Details

Date: 05 February 2019
Orbit: 380 x 390 km, 42.8° (Epoch: 21 February)

Event Time Altitude Azimuth Distance (km) Brightness Sun altitude
Exits shadow 05:18:21 24° 307° (NW) 840 2.2 -13.4°
Maximum altitude 05:20:04 74° 227° (SW) 400 1.0 -12.9°
Drops below altitude 10° 05:23:14 10° 140° (SE) 1,406 4.8 -12.2°
Sets 05:25:19 0° 138° (SE) 2,264 6.1 -11.7°
